This demonstration page uses our WeatherBlox Daily Observations layout. Learn more.

Left ArrowRight Arrow

Hourly Observations for December 3, 2017

Temp ( °F °C ) Dew Point ( °F °C ) Humidity (%) Winds ( mph kmh ) Pressure ( in mb ) Visibility ( mi km ) Precip ( " mm )
12:15 am 00:15 Clear 32 -0.1 28 -2.5 84 84 Calm 30.18 1022 10 16 0.00 0.00
12:35 am 00:35 Clear 31 -0.4 28 -2.5 86 86 Calm 30.18 1022 10 16 0.00 0.00
12:55 am 00:55 Clear 32 -0.1 28 -2.2 86 86 Calm 30.21 1023 10 16 0.00 0.00
1:15 am 01:15 Clear 30 -1 28 -2.5 90 90 Calm 30.21 1023 10 16 0.00 0.00
1:35 am 01:35 Clear 31 -0.5 28 -2.3 88 88 Calm 30.21 1023 10 16 0.00 0.00
1:55 am 01:55 Clear 30 -1.2 28 -2.3 92 92 W 3 6 30.21 1023 10 16 0.00 0.00
2:15 am 02:15 Clear 31 -0.7 28 -2.5 88 88 W 3 6 30.21 1023 10 16 0.00 0.00
2:35 am 02:35 Clear 32 -0.2 28 -2.5 85 85 Calm 30.21 1023 10 16 0.00 0.00
2:55 am 02:55 Clear 30 -0.9 28 -2.3 90 90 Calm 30.21 1023 10 16 0.00 0.00
3:15 am 03:15 Clear 32 -0.1 28 -2.2 86 86 Calm 30.21 1023 10 16 0.00 0.00
3:35 am 03:35 Clear 30 -1 27 -2.7 88 88 Calm 30.21 1023 10 16 0.00 0.00
3:55 am 03:55 Clear 32 0 28 -2.2 85 85 Calm 30.21 1023 10 16 0.00 0.00
4:15 am 04:15 Clear 32 -0.2 28 -2.5 85 85 Calm 30.21 1023 10 16 0.00 0.00
4:35 am 04:35 Clear 29 -1.6 27 -3 90 90 Calm 30.21 1023 10 16 0.00 0.00
4:55 am 04:55 Clear 29 -1.4 27 -2.9 90 90 S 3 6 30.21 1023 10 16 0.00 0.00
5:15 am 05:15 Clear 30 -1.1 27 -2.6 90 90 Calm 30.21 1023 10 16 0.00 0.00
5:35 am 05:35 Clear 28 -2.1 26 -3.6 90 90 Calm 30.24 1024 10 16 0.00 0.00
5:55 am 05:55 Clear 29 -1.8 27 -3 92 92 Calm 30.21 1023 10 16 0.00 0.00
6:15 am 06:15 Clear 28 -2.5 26 -3.3 94 94 Calm 30.27 1025 10 16 0.00 0.00
6:35 am 06:35 Clear 27 -2.8 26 -3.6 94 94 Calm 30.27 1025 10 16 0.00 0.00
6:55 am 06:55 Clear 28 -2.3 26 -3.5 92 92 Calm 30.27 1025 10 16 0.00 0.00
7:15 am 07:15 Clear 28 -2.3 26 -3.2 94 94 Calm 30.27 1025 10 16 0.00 0.00
7:35 am 07:35 Clear 26 -3.1 25 -4.1 93 93 Calm 30.27 1025 10 16 0.00 0.00
7:55 am 07:55 Sunny 27 -2.7 26 -3.5 94 94 Calm 30.30 1026 7 11 0.00 0.00
8:15 am 08:15 Sunny 27 -2.7 26 -3.5 94 94 Calm 30.30 1026 7 11 0.00 0.00
8:35 am 08:35 Sunny 29 -1.8 28 -2.5 95 95 Calm 30.30 1026 7 11 0.00 0.00
8:55 am 08:55 Sunny 30 -1 28 -2 93 93 Calm 30.27 1025 7 11 0.00 0.00
9:15 am 09:15 Sunny 33 0.6 31 -0.8 90 90 Calm 30.27 1025 10 16 0.00 0.00
9:35 am 09:35 Sunny 36 2.4 33 0.7 89 89 Calm 30.27 1025 10 16 0.00 0.00
9:55 am 09:55 Sunny 40 4.3 34 1 79 79 Calm 30.27 1025 10 16 0.00 0.00
10:15 am 10:15 Sunny 43 6.2 35 1.6 73 73 Calm 30.27 1025 10 16 0.00 0.00
10:35 am 10:35 Sunny 46 7.6 38 3.2 74 74 Calm 30.24 1024 10 16 0.00 0.00
10:55 am 10:55 Sunny 49 9.2 36 2.1 61 61 SSE 3 6 30.24 1024 10 16 0.00 0.00
11:15 am 11:15 Sunny 50 10 36 2 58 58 SSE 3 6 30.24 1024 10 16 0.00 0.00
11:35 am 11:35 Sunny 52 11.2 35 1.8 53 53 SSE 5 7 30.24 1024 10 16 0.00 0.00
11:55 am 11:55 Sunny 53 11.7 35 1.5 50 50 SSE 5 7 30.24 1024 10 16 0.00 0.00
12:15 pm 12:15 Sunny 54 12.1 34 1 47 47 SSE 7 11 30.24 1024 10 16 0.00 0.00
12:35 pm 12:35 Sunny 54 12.4 34 0.9 46 46 SSE 7 11 30.21 1023 10 16 0.00 0.00
12:55 pm 12:55 Sunny 55 13 34 1 44 44 SSE 8 13 30.21 1023 10 16 0.00 0.00
1:15 pm 13:15 Sunny 56 13.1 33 0.8 43 43 SSW 8 13 30.21 1023 10 16 0.00 0.00
1:35 pm 13:35 Sunny 56 13.3 33 0.6 42 42 S 6 9 30.21 1023 10 16 0.00 0.00
1:55 pm 13:55 Sunny 56 13.3 33 0.5 42 42 S 7 11 30.18 1022 10 16 0.00 0.00
2:15 pm 14:15 Sunny 56 13.4 33 0.7 42 42 S 8 13 30.18 1022 10 16 0.00 0.00
2:35 pm 14:35 Sunny 56 13.4 32 0.2 41 41 S 6 9 30.18 1022 10 16 0.00 0.00
2:55 pm 14:55 Sunny 56 13.4 34 0.9 43 43 SSE 8 13 30.18 1022 10 16 0.00 0.00
3:15 pm 15:15 Sunny 56 13.2 33 0.6 42 42 S 6 9 30.18 1022 10 16 0.00 0.00
3:35 pm 15:35 Sunny 56 13.2 34 1.3 45 45 SSE 6 9 30.18 1022 10 16 0.00 0.00
3:55 pm 15:55 Sunny 55 13 35 1.4 45 45 SSE 8 13 30.18 1022 10 16 0.00 0.00
4:15 pm 16:15 Sunny 55 12.5 34 1.2 46 46 SSE 6 9 30.18 1022 10 16 0.00 0.00
4:35 pm 16:35 Sunny 53 11.8 34 1.2 49 49 SSE 7 11 30.18 1022 10 16 0.00 0.00
4:55 pm 16:55 Sunny 51 10.5 35 1.9 56 56 SSE 5 7 30.18 1022 10 16 0.00 0.00
5:15 pm 17:15 Sunny 49 9.6 35 1.4 57 57 SSE 5 7 30.18 1022 10 16 0.00 0.00
5:35 pm 17:35 Clear 47 8.5 34 1.2 60 60 SE 5 7 30.18 1022 10 16 0.00 0.00
5:55 pm 17:55 Clear 46 7.8 34 1 62 62 SE 5 7 30.18 1022 10 16 0.00 0.00
6:15 pm 18:15 Clear 46 7.9 33 0.5 60 60 SE 5 7 30.18 1022 10 16 0.00 0.00
6:35 pm 18:35 Clear 43 6.2 32 0.2 66 66 SE 5 7 30.18 1022 10 16 0.00 0.00
6:55 pm 18:55 Clear 44 6.4 33 0.3 65 65 SE 6 9 30.18 1022 10 16 0.00 0.00
7:15 pm 19:15 Clear 44 6.4 33 0.5 66 66 SE 6 9 30.15 1021 10 16 0.00 0.00
7:35 pm 19:35 Clear 44 6.8 33 0.7 65 65 SE 8 13 30.15 1021 10 16 0.00 0.00
7:55 pm 19:55 Clear 44 6.6 34 1 68 68 SSE 7 11 30.15 1021 10 16 0.00 0.00
8:15 pm 20:15 Clear 43 6.3 34 1 69 69 SSE 7 11 30.15 1021 10 16 0.00 0.00
8:35 pm 20:35 Clear 44 6.4 34 1 69 69 SSE 7 11 30.15 1021 10 16 0.00 0.00
8:55 pm 20:55 Clear 43 6.1 33 0.6 68 68 SSE 6 9 30.15 1021 10 16 0.00 0.00
9:15 pm 21:15 Clear 42 5.7 34 0.9 72 72 SSE 7 11 30.15 1021 10 16 0.00 0.00
9:35 pm 21:35 Clear 43 6.2 33 0.8 69 69 SSE 6 9 30.15 1021 10 16 0.00 0.00
9:55 pm 21:55 Clear 43 6 33 0.7 69 69 SSE 6 9 30.15 1021 10 16 0.00 0.00
10:15 pm 22:15 Clear 42 5.3 33 0.8 73 73 SSE 8 13 30.18 1022 10 16 0.00 0.00
10:35 pm 22:35 Clear 42 5.7 33 0.7 71 71 SSE 9 15 30.15 1021 10 16 0.00 0.00
10:55 pm 22:55 Clear 43 6.1 33 0.8 69 69 SSE 8 13 30.15 1021 10 16 0.00 0.00
11:15 pm 23:15 Clear 43 5.9 33 0.7 70 70 SSE 7 11 30.12 1020 10 16 0.00 0.00
11:35 pm 23:35 Clear 42 5.8 33 0.7 70 70 SSE 7 11 30.12 1020 10 16 0.00 0.00
11:55 pm 23:55 Clear 42 5.8 33 0.7 70 70 SSE 7 11 30.12 1020 10 16 0.00 0.00

Powered by AerisWeather